Back to catalog

PRC TEST SPACECRAFT 4

AliveScienceVLEO
NORAD 67689·PAYLOAD·🇨🇳 China

Launched Feb 7, 2026 from Jiuquan Satellite Launch Center

Loading…

Next Passes (next 24 hours)

TLE

FreshSource: Space-Track

Epoch: Sep 14, 2026, 12:30 UTC

1 67689U 26024A   26257.52149844  .00000820  00000-0  10397-3 0  9992
2 67689  49.9931 216.3209 0005536  22.4219 337.6963 14.91966425 32778

Track PRC TEST SPACECRAFT 4 in real time with AllMySat

Download on the App Store